Kars, Turkey

1:19 AM +03 on July 26, 2017 (GMT +0300)
Kars

Weather History for LTCF - October, 2013

Change the Weather History Date:

Friday, October 25, 2013

  Actual Average Record
Temperature  
Mean Temperature 38 °F -  
Max Temperature 51 °F 45 °F - ()
Min Temperature 26 °F 25 °F - ()
Degree Days  
Heating Degree Days 26    
Moisture  
Dew Point 29 °F    
Average Humidity 68    
Maximum Humidity 100    
Minimum Humidity 32    
Precipitation  
Precipitation 0.00 in 0.04 in - ()
Sea Level Pressure  
Sea Level Pressure 30.35 in    
Wind  
Wind Speed 3 mph ()    
Max Wind Speed 10 mph    
Max Gust Speed -    
Visibility 6.2 miles    
Events      
T = Trace of Precipitation, MM = Missing Value Source: Averaged Metar Reports

Daily Weather History Graph

Daily Weather History Graph

Search for Another Location

Airport or City:

Trip Planner

Search our weather history database for the weather conditions in past years. The results will help you decide how hot, cold, wet, or windy it might be!

Date:

Astronomy

Oct. 25, 2013 Rise Set
Actual Time 6:29 AM EEST 5:13 PM EEST
Civil Twilight 6:01 AM EEST 5:41 PM EEST
Nautical Twilight 5:29 AM EEST 6:12 PM EEST
Astronomical Twilight 4:57 AM EEST 6:44 PM EEST
Moon 10:11 PM EEST 11:56 AM EEST
Length of Visible Light 11h 39m
Length of Day
10h 43m
Waning Gibbous, 65% of the Moon is Illuminated
Oct 25
Waning Gibbous
Oct 27
Last Quarter
Nov 3
New
Nov 10
First Quarter
Nov 17
Full

Hourly Weather History & Observations

Time (EEST) Temp. Windchill Dew Point Humidity Pressure Visibility Wind Dir Wind Speed Gust Speed Precip Events Conditions
12:50 AM 32.0 °F 23.6 °F 28.4 °F 87% 30.42 in 6.2 mi NE 10.4 mph - N/A   Scattered Clouds
1:50 AM 33.8 °F 30.8 °F 28.4 °F 81% 30.42 in 6.2 mi NE 3.5 mph - N/A   Mostly Cloudy
3:50 AM 35.6 °F - 28.4 °F 75% 30.39 in 6.2 mi Calm Calm - N/A   Mostly Cloudy
4:50 AM 35.6 °F 32.8 °F 28.4 °F 75% 30.39 in 6.2 mi ENE 3.5 mph - N/A   Mostly Cloudy
5:50 AM 35.6 °F 31.7 °F 28.4 °F 75% 30.39 in 6.2 mi ENE 4.6 mph - N/A   Mostly Cloudy
6:50 AM 35.6 °F - 28.4 °F 75% 30.39 in 6.2 mi Calm Calm - N/A   Mostly Cloudy
7:50 AM 35.6 °F 31.7 °F 30.2 °F 81% 30.39 in 6.2 mi NE 4.6 mph - N/A   Mostly Cloudy
8:50 AM 37.4 °F - 30.2 °F 75% 30.39 in 6.2 mi Variable 1.2 mph - N/A   Mostly Cloudy
9:00 AM 37 °F - 30 °F 67%  in 6 mi NNE 1.2 mph - -   Mostly Cloudy
9:50 AM 39.2 °F - 30.2 °F 70% 30.39 in 6.2 mi Variable 1.2 mph - N/A   Mostly Cloudy
10:50 AM 42.8 °F - 30.2 °F 61% 30.39 in 6.2 mi Variable 1.2 mph - N/A   Scattered Clouds
11:50 AM 46.4 °F - 30.2 °F 53% 30.36 in 6.2 mi Calm Calm - N/A   Scattered Clouds
12:50 PM 50.0 °F - 30.2 °F 47% 30.33 in 6.2 mi Variable 2.3 mph - N/A   Mostly Cloudy
1:50 PM 48.2 °F - 30.2 °F 50% 30.33 in 6.2 mi Variable 2.3 mph - N/A   Mostly Cloudy
2:50 PM 50.0 °F - 30.2 °F 47% 30.30 in 6.2 mi SSW 5.8 mph - N/A   Scattered Clouds
3:00 PM 50 °F - 29 °F 32%  in 6 mi SSW 5.8 mph - -   Partly Cloudy
3:50 PM 50.0 °F - 28.4 °F 43% 30.30 in 6.2 mi SE 6.9 mph - N/A   Scattered Clouds
4:50 PM 46.4 °F 43.5 °F 30.2 °F 53% 30.30 in - SE 5.8 mph - N/A   Clear
5:50 PM 39.2 °F 34.2 °F 26.6 °F 61% 30.30 in - ESE 6.9 mph - N/A   Clear
6:50 PM 37.4 °F 33.8 °F 26.6 °F 65% 30.30 in - ESE 4.6 mph - N/A   Clear
7:50 PM 35.6 °F - 28.4 °F 75% 30.30 in - Variable 1.2 mph - N/A   Clear
8:50 PM 35.6 °F - 30.2 °F 81% 30.30 in - Calm Calm - N/A   Clear
9:00 PM 35 °F - 29 °F 72%  in 6 mi Calm Calm - -  
9:50 PM 30.2 °F - 26.6 °F 86% 30.30 in - Calm Calm - N/A   Clear
10:50 PM 26.6 °F - 24.8 °F 93% 30.30 in - Calm Calm - N/A   Clear
11:50 PM 26.6 °F 22.6 °F 26.6 °F 100% 30.27 in - NNW 3.5 mph - N/A   Clear